Lid_Strength_Index
5 5 6 6 6 7 8 8 10 12 11 9 9 9 9 9 10 10 10 10 10 9 10 10 10 10 11 11 11 11 12 11 12 11 12 11 11 10
5 5 6 6 6 7 7 8 8 9 12 10 10 9 10 10 10 11 11 10 11 11 11 11 11 12 12 12 12 13 13 12 13 12 13 12 12 12
4 4 5 5 7 7 7 7 8 8 10 10 10 9 10 10 11 11 11 12 12 12 12 12 12 12 12 13 13 14 14 14 14 14 14 14 14 13
5 5 5 5 6 6 7 7 8 8 10 11 10 11 11 10 11 11 12 13 13 12 12 12 13 13 14 14 15 15 15 15 15 15 15 15 15 15
5 5 6 6 6 7 7 7 8 8 8 11 12 11 11 10 11 10 12 13 13 11 12 13 13 13 14 15 15 15 15 15 15 16 16 16 16 15
6 6 6 7 7 7 8 8 8 9 10 12 11 12 12 11 11 13 13 12 13 12 13 13 13 14 15 15 15 15 15 15 16 16 16 16 16 16
8 7 7 7 7 8 8 8 9 10 12 12 13 13 13 13 14 13 13 13 13 13 14 14 15 15 15 15 15 14 14 15 16 16 15 15 15 16
9 9 8 7 9 9 9 10 9 11 13 14 14 14 14 13 14 14 14 15 17 13 15 16 14 15 14 14 13 14 14 15 15 15 15 15 15 15
9 9 10 10 9 10 10 11 12 12 13 12 15 13 15 14 14 14 14 15 15 14 13 14 14 14 12 13 13 14 15 15 15 15 15 14 14 14
8 9 10 10 10 11 11 12 12 12 12 12 11 12 12 13 12 12 12 13 12 13 12 14 12 13 11 12 13 14 15 15 14 14 14 13 14 14
9 9 9 11 10 10 12 12 12 12 11 10 10 10 11 11 11 12 13 13 15 13 11 12 12 12 11 12 13 13 14 14 14 14 14 14 14 14
10 10 10 10 11 11 12 12 13 13 12 12 12 11 11 10 10 9 10 12 13 14 12 13 12 12 14 11 11 14 14 14 13 13 13 13 13 13
11 11 11 11 11 11 11 11 13 12 13 13 13 12 12 12 11 10 10 10 12 12 11 11 12 13 13 13 13 12 11 11 12 11 12 12 12 12
10 11 11 11 10 11 11 11 12 12 12 13 13 13 13 13 12 12 12 13 11 12 12 11 12 12 13 13 14 12 12 11 11 12 11 11 11 11
10 10 10 10 10 11 11 11 11 11 12 12 13 13 12 12 12 12 12 12 13 12 12 12 12 13 13 13 14 13 13 12 11 11 11 11 11 11
10 10 10 11 11 11 11 10 10 10 10 11 11 11 12 12 13 12 13 13 14 14 13 13 13 14 14 13 13 13 12 13 11 11 11 11 10 10
10 10 11 11 12 11 11 10 10 10 10 10 11 12 12 12 12 12 12 12 13 14 15 14 13 13 13 13 14 13 13 12 11 11 11 12 11 11
10 10 11 11 12 11 11 11 10 10 10 10 11 11 12 12 12 12 12 12 13 12 12 12 13 13 13 13 12 13 12 12 11 11 12 13 13 11
10 10 10 11 11 11 11 11 11 10 10 10 11 11 11 11 12 12 12 12 12 12 11 10 11 12 14 14 10 10 12 12 12 13 13 13 13 13
8 9 10 10 10 11 10 10 10 11 11 11 10 10 10 11 12 12 12 12 11 11 11 11 11 11 13 14 14 12 13 14 14 15 14 13 12 12
9 9 9 9 9 9 9 9 10 10 10 10 10 11 10 11 11 11 11 11 12 12 12 12 11 14 12 13 15 15 13 12 12 14 14 15 15 15
8 9 9 9 9 9 9 10 10 10 10 10 10 10 10 10 10 11 11 11 12 12 12 11 11 11 12 14 15 15 14 13 12 13 13 14 16 18
9 8 9 9 9 9 10 10 10 10 10 10 10 10 10 11 10 10 11 11 12 12 12 13 13 13 14 14 15 15 16 15 14 14 13 12 12 12